Back to catalog

CZ-6A DEB

AlivePO
NORAD 60842·DEBRIS·🇨🇳 China

Launched Aug 6, 2024 from Taiyuan Satellite Launch Center

Loading…

Next Passes (next 24 hours)

TLE

FreshSource: Space-Track

Epoch: Sep 13, 2026, 22:46 UTC

1 60842U 24140HV  26256.94890016  .00001731  00000-0  17755-3 0  9999
2 60842  88.8925 245.4660 0147097 193.9004 165.8155 14.82130419112494

Track CZ-6A DEB in real time with AllMySat

Download on the App Store